Grand Forks, ND

8:07 PM CDT on April 25, 2017 (GMT -0500)
Grand Forks International

Weather History for KGFK - June, 2013

Change the Weather History Date:

Wednesday, June 26, 2013

  Actual Average Record
Temperature  
Mean Temperature 75 °F 67 °F  
Max Temperature 85 °F 79 °F 97 °F (1961)
Min Temperature 64 °F 55 °F 41 °F (2004)
Degree Days  
Heating Degree Days 0 2  
Month to date heating degree days 77 97  
Since 1 June heating degree days 77 97  
Since 1 July heating degree days 9965 9509  
Cooling Degree Days 10 4  
Month to date cooling degree days 85 59  
Year to date cooling degree days 94 76  
Since 1 June cooling degree days 85 59  
Growing Degree Days 24 (Base 50)    
Moisture  
Dew Point 64 °F    
Average Humidity 72    
Maximum Humidity 100    
Minimum Humidity 44    
Precipitation  
Precipitation 0.02 in 0.13 in 1.71 in (2009)
Month to date precipitation 3.07 3.00  
Year to date precipitation 11.24 8.72  
Snow  
Snow 0.00 in 0.00 in - ()
Month to date snowfall 0.0 0.0  
Since 1 June snowfall 0.0 0.0  
Since 1 July snowfall 50.2 47.4  
Snow Depth 0.00 in    
Sea Level Pressure  
Sea Level Pressure 29.65 in    
Wind  
Wind Speed 8 mph (WNW)    
Max Wind Speed 18 mph    
Max Gust Speed 24 mph    
Visibility 9 miles    
Events Rain    
T = Trace of Precipitation, MM = Missing Value Source: NWS Daily Summary

Daily Weather History Graph

Daily Weather History Graph

Search for Another Location

Airport or City:

Trip Planner

Search our weather history database for the weather conditions in past years. The results will help you decide how hot, cold, wet, or windy it might be!

Date:

Astronomy

Jun. 26, 2013 Rise Set
Actual Time 5:31 AM CDT 9:32 PM CDT
Civil Twilight 4:49 AM CDT 10:13 PM CDT
Nautical Twilight 3:52 AM CDT 11:10 PM CDT
Astronomical Twilight 2:16 AM CDT 12:45 AM CDT
Moon 11:34 PM CDT 9:42 AM CDT
Length of Visible Light 17h 23m
Length of Day
16h 01m
Waning Gibbous, 85% of the Moon is Illuminated
Jun 26
Waning Gibbous
Jun 29
Last Quarter
Jul 8
New
Jul 15
First Quarter
Jul 22
Full

Hourly Weather History & Observations

Time (CDT) Temp. Heat Index Dew Point Humidity Pressure Visibility Wind Dir Wind Speed Gust Speed Precip Events Conditions
12:18 AM 66.2 °F - 64.4 °F 94% 29.68 in 2.5 mi NW 25.3 mph 32.2 mph 0.03 in Rain Heavy Rain
12:26 AM 66.2 °F - 64.4 °F 94% 29.67 in 1.8 mi North 13.8 mph 29.9 mph 0.24 in Rain Heavy Rain
12:29 AM 66.2 °F - 64.4 °F 94% 29.67 in 3.0 mi North 11.5 mph 24.2 mph 0.25 in Rain Heavy Rain
12:40 AM 66.2 °F - 64.4 °F 94% 29.62 in 5.0 mi ENE 16.1 mph - 0.33 in Rain Rain
12:48 AM 66.2 °F - 64.4 °F 94% 29.61 in 10.0 mi East 17.3 mph - 0.34 in Rain Light Rain
12:53 AM 66.0 °F - 64.9 °F 96% 29.60 in 10.0 mi ENE 11.5 mph 21.9 mph 0.34 in Rain Light Rain
1:53 AM 66.9 °F - 64.0 °F 90% 29.62 in 10.0 mi SE 8.1 mph - 0.01 in Rain Light Rain
2:53 AM 66.0 °F - 64.0 °F 93% 29.56 in 10.0 mi ESE 4.6 mph - 0.01 in   Clear
3:53 AM 66.0 °F - 64.0 °F 93% 29.59 in 10.0 mi West 5.8 mph - N/A   Mostly Cloudy
4:25 AM 64.4 °F - 64.4 °F 100% 29.60 in 10.0 mi West 3.5 mph - N/A   Mostly Cloudy
4:44 AM 64.4 °F - 64.4 °F 100% 29.60 in 10.0 mi WNW 8.1 mph - N/A   Overcast
4:53 AM 64.9 °F - 64.0 °F 97% 29.59 in 10.0 mi WNW 9.2 mph - N/A   Overcast
5:18 AM 64.4 °F - 64.4 °F 100% 29.61 in 9.0 mi NNW 6.9 mph - N/A   Mostly Cloudy
5:27 AM 64.4 °F - 64.4 °F 100% 29.61 in 8.0 mi NNW 6.9 mph - N/A   Mostly Cloudy
5:53 AM 64.0 °F - 64.0 °F 100% 29.61 in 7.0 mi North 4.6 mph - N/A   Overcast
6:04 AM 64.4 °F - 64.4 °F 100% 29.62 in 7.0 mi North 4.6 mph - N/A   Overcast
6:30 AM 64.4 °F - 62.6 °F 94% 29.63 in 8.0 mi NNE 4.6 mph - N/A   Overcast
6:53 AM 64.9 °F - 64.0 °F 97% 29.63 in 9.0 mi Calm Calm - N/A   Overcast
7:53 AM 66.9 °F - 64.0 °F 90% 29.63 in 10.0 mi West 3.5 mph - N/A   Overcast
8:03 AM 66.2 °F - 64.4 °F 94% 29.64 in 10.0 mi WSW 3.5 mph - N/A   Mostly Cloudy
8:53 AM 70.0 °F - 64.9 °F 84% 29.64 in 10.0 mi West 5.8 mph - N/A   Scattered Clouds
9:50 AM 73.4 °F - 66.2 °F 78% 29.66 in 10.0 mi West 8.1 mph - N/A   Mostly Cloudy
9:53 AM 73.0 °F - 66.9 °F 81% 29.65 in 10.0 mi WNW 6.9 mph - N/A   Mostly Cloudy
10:53 AM 75.9 °F - 66.9 °F 74% 29.67 in 10.0 mi NW 6.9 mph - N/A   Scattered Clouds
11:53 AM 79.0 °F - 66.9 °F 66% 29.67 in 10.0 mi NW 10.4 mph - N/A   Scattered Clouds
12:53 PM 81.0 °F 83.0 °F 66.0 °F 60% 29.68 in 10.0 mi WNW 15.0 mph 20.7 mph N/A   Scattered Clouds
1:53 PM 82.9 °F 84.0 °F 63.0 °F 51% 29.68 in 10.0 mi NW 16.1 mph 23.0 mph N/A   Scattered Clouds
2:53 PM 84.0 °F 84.9 °F 63.0 °F 49% 29.68 in 10.0 mi WNW 12.7 mph 23.0 mph N/A   Scattered Clouds
3:53 PM 84.0 °F 85.4 °F 64.0 °F 51% 29.68 in 10.0 mi WNW 12.7 mph - N/A   Mostly Cloudy
4:53 PM 84.9 °F 84.8 °F 60.1 °F 43% 29.68 in 10.0 mi West 13.8 mph - N/A   Scattered Clouds
5:53 PM 84.9 °F 84.8 °F 60.1 °F 43% 29.67 in 10.0 mi West 11.5 mph - 0.00 in   Scattered Clouds
6:53 PM 84.0 °F 84.0 °F 60.1 °F 44% 29.68 in 10.0 mi WNW 10.4 mph - N/A   Mostly Cloudy
7:53 PM 82.9 °F 83.3 °F 61.0 °F 47% 29.68 in 10.0 mi West 6.9 mph - N/A   Mostly Cloudy
8:53 PM 78.1 °F - 64.0 °F 62% 29.68 in 10.0 mi WNW 3.5 mph - N/A   Scattered Clouds
9:53 PM 75.0 °F - 61.0 °F 62% 29.69 in 10.0 mi WSW 5.8 mph - N/A   Scattered Clouds
10:53 PM 73.9 °F - 62.1 °F 66% 29.71 in 10.0 mi WSW 9.2 mph - N/A   Scattered Clouds
11:53 PM 71.1 °F - 61.0 °F 70% 29.72 in 10.0 mi West 5.8 mph - N/A   Partly Cloudy